Torna al catalogo

STARLINK-34698

AttivoComunicazioniVLEO
NORAD 66445·PAYLOAD·🇺🇸 United States

Lanciato Nov 11, 2025 da Cape Canaveral Space Force Station

Loading…

Prossimi Passaggi (prossime 24 ore)

TLE

AggiornatoSource: CelesTrak SupGP

Epoca: Sep 15, 2026, 03:38 UTC

1 66445C 25259Z   26258.15187500 -.00004239  00000+0 -15352-3 0  2584
2 66445  43.0001 284.7012 0001432 267.6387  74.6517 15.27582112    13

Traccia STARLINK-34698 in tempo reale con AllMySat

Download on the App Store